Theta_e
318 318 317 317 317 317 316 316 316 317 317 317 317 317 317 317 318 319 320 320 320 318 317 316 316 316 317 318 319 319 319 318 318 318 317 315 315 314 314 314 314 313 312 311 310 308 307 306 305 304 302 300 298 297 295 293 293 292 292 292 293 293 293 293 293 293 293 293 293 293 293 293 293 293 293 292 292 292 292 292 292 292 291 292 292 292
317 317 317 316 316 316 316 315 314 314 315 315 315 316 316 317 318 319 320 320 319 317 316 316 316 317 318 318 319 318 318 318 318 317 317 315 315 314 314 314 313 312 311 310 309 308 307 306 305 303 301 300 298 296 295 293 293 292 292 292 292 293 293 293 293 293 293 293 293 293 293 293 293 293 292 292 292 292 292 292 291 291 291 291 291 291
317 316 316 316 316 316 316 315 315 314 315 315 315 316 317 318 318 319 320 320 319 317 316 315 315 316 317 318 318 318 318 317 317 317 317 316 315 315 314 313 312 311 310 309 309 308 308 307 305 303 301 299 297 296 294 293 292 292 292 292 292 292 292 292 293 293 293 293 293 293 293 292 292 292 292 292 292 292 292 291 291 291 291 291 291 291
317 316 316 316 316 316 316 316 316 316 316 316 316 317 318 318 318 318 318 319 318 317 316 315 315 315 316 317 317 317 317 317 317 317 316 316 316 315 314 313 311 309 309 309 309 309 308 306 305 302 300 298 296 295 294 293 292 292 292 292 292 292 292 292 292 292 292 292 292 292 292 292 292 292 292 292 292 292 292 291 291 291 291 291 291 291
318 317 316 316 315 316 316 316 316 317 317 317 317 318 318 318 318 317 317 317 318 317 316 315 315 314 314 315 315 316 316 316 316 316 316 316 316 315 314 312 310 309 309 309 309 309 307 306 304 302 299 297 295 294 293 292 292 292 292 292 292 292 292 292 292 292 292 292 292 292 292 292 292 292 292 292 292 292 291 291 291 291 291 291 291 291
318 317 316 316 316 315 315 316 316 316 317 317 317 318 317 317 317 317 317 317 317 317 316 315 315 314 314 314 314 315 315 316 316 316 315 315 315 314 313 312 310 309 309 309 309 308 306 305 303 300 298 296 294 293 292 292 292 292 292 292 292 292 292 292 292 292 292 292 292 292 292 292 292 292 292 292 291 291 291 291 291 291 291 291 291 291
318 318 317 316 316 316 316 315 315 316 316 316 316 316 316 316 316 316 316 316 316 316 316 315 315 314 314 313 313 314 314 315 315 315 315 315 314 313 312 311 310 309 309 309 308 306 305 303 301 299 297 295 293 292 292 292 292 292 292 292 292 292 292 292 292 292 292 292 292 292 292 292 292 292 292 291 291 291 291 291 291 291 291 291 291 291
316 317 317 317 317 317 316 316 316 316 316 316 316 316 315 315 315 315 315 315 315 315 315 315 314 314 313 313 313 313 313 314 314 315 315 314 314 313 312 311 310 310 309 308 306 305 303 302 300 298 296 294 293 292 291 291 291 291 291 291 291 291 292 291 292 292 292 292 292 292 291 292 291 291 291 291 291 291 291 291 291 291 291 291 291 291
314 315 316 316 317 317 316 316 316 316 316 316 316 316 315 315 315 314 314 314 314 314 314 314 314 313 313 313 313 313 313 314 314 314 314 314 314 313 312 311 311 310 309 307 305 303 302 301 299 297 295 293 292 291 291 291 291 291 291 291 291 291 291 291 291 291 291 291 291 291 291 291 291 291 291 291 291 291 291 291 291 291 291 291 291 291
314 314 315 315 316 316 316 316 316 316 317 316 316 315 315 315 315 315 314 313 313 313 313 313 313 313 313 312 312 312 313 313 313 313 313 313 313 313 312 311 311 310 309 307 305 303 302 300 298 296 294 292 291 291 291 291 291 291 291 291 291 291 291 291 291 291 291 291 291 291 291 291 291 291 291 291 291 291 291 291 291 291 291 291 291 291
314 314 315 315 316 316 316 316 316 316 316 316 315 315 314 314 314 314 314 314 314 313 313 313 312 312 312 311 311 311 311 311 311 311 312 312 312 312 312 311 311 310 309 307 305 304 302 300 298 295 293 292 291 291 291 291 291 291 291 291 291 291 291 291 291 291 291 291 291 291 291 291 291 291 291 291 290 290 290 291 291 291 291 291 290 290
315 314 314 314 315 315 315 315 315 316 316 316 315 314 314 314 314 314 313 314 314 313 313 313 312 312 311 311 310 310 310 310 310 310 310 311 311 312 311 311 311 310 309 308 306 304 303 300 297 295 292 291 291 291 291 291 291 291 291 291 291 291 291 291 291 291 291 291 291 291 291 291 291 291 291 290 290 290 290 290 290 290 290 290 290 290
315 314 314 313 313 313 314 314 314 314 315 315 315 315 314 314 314 314 313 312 312 313 313 313 313 313 312 311 310 310 309 309 309 309 310 310 311 311 311 311 310 310 309 308 306 305 303 300 297 294 292 291 291 291 291 291 291 291 291 291 291 291 291 291 291 291 291 291 291 291 291 291 291 291 291 291 291 290 290 290 290 290 290 290 290 290
314 314 314 313 312 312 312 313 313 313 313 314 314 315 314 314 314 313 313 312 311 311 311 312 312 312 312 311 311 310 310 309 310 310 310 310 310 310 310 310 310 309 309 307 306 304 303 299 296 293 291 291 291 291 290 290 290 290 290 290 290 290 290 291 291 291 291 291 291 291 291 291 291 291 291 291 290 291 290 290 290 290 290 290 290 290
314 313 313 313 312 312 313 313 313 313 313 313 313 313 312 312 312 312 312 311 311 311 310 310 310 311 311 311 310 310 310 310 310 309 310 310 309 309 309 309 308 308 307 306 305 303 301 297 294 292 291 291 290 290 290 290 290 290 290 290 290 290 290 290 290 290 290 290 290 290 290 290 290 290 290 291 291 291 291 290 290 290 290 290 290 290
314 314 313 313 313 313 313 313 313 313 313 313 312 311 311 311 311 311 310 310 310 310 310 309 308 308 309 309 309 309 309 309 309 309 309 309 308 308 308 307 307 307 306 305 303 301 298 296 293 291 290 290 290 290 290 290 290 290 290 290 290 290 290 290 290 290 290 290 290 290 290 290 290 290 290 290 290 290 290 290 290 290 290 290 290 290
314 314 314 314 314 314 314 314 313 313 313 312 312 312 311 311 311 310 310 310 310 310 309 309 308 308 308 307 307 308 308 308 308 308 308 308 307 307 306 306 306 305 305 303 301 299 297 295 293 291 290 290 290 290 290 290 290 290 290 290 290 290 290 290 290 290 290 290 290 290 290 290 290 290 290 290 290 290 290 290 290 290 290 290 290 290
314 314 314 314 314 314 314 314 314 313 313 312 312 312 311 311 311 310 310 309 309 310 310 309 309 308 309 308 307 307 307 307 307 307 307 307 306 306 305 305 305 304 304 302 300 298 296 294 292 291 290 290 290 290 290 290 290 290 290 290 290 290 290 290 290 290 290 290 290 290 290 290 290 290 290 290 290 290 290 290 290 290 290 290 290 290
314 314 314 314 314 314 314 314 314 313 313 312 312 311 311 310 310 310 310 310 310 310 310 309 309 309 309 309 309 309 308 307 306 306 306 306 306 305 305 304 304 303 303 302 300 297 295 293 292 291 290 289 289 289 289 290 290 290 290 290 290 290 290 290 290 290 290 290 290 290 290 290 290 290 290 290 290 290 290 290 290 290 290 290 290 290
313 314 314 314 313 313 313 313 313 313 313 312 312 312 311 310 310 309 309 309 309 309 309 309 309 309 309 309 309 309 308 307 306 305 306 306 306 305 304 304 303 303 302 301 299 296 294 292 291 290 290 289 289 289 289 289 290 290 290 290 290 290 290 290 290 290 290 290 290 290 290 290 290 290 290 290 290 290 290 290 290 290 290 290 290 290
312 312 313 313 313 313 313 312 312 312 312 312 312 312 311 310 310 310 309 309 309 309 309 309 309 309 309 309 309 308 307 306 305 305 305 306 305 305 304 304 303 302 302 300 297 294 292 291 291 290 290 289 289 289 289 289 289 289 289 290 290 290 290 290 290 290 290 290 290 290 290 290 290 290 290 290 290 290 290 290 290 290 290 290 290 290
309 310 310 311 311 312 312 312 312 312 312 312 311 311 310 310 310 309 309 308 308 308 308 309 309 308 308 308 308 307 306 305 305 305 305 305 305 305 304 303 302 301 300 298 295 293 292 291 291 290 289 289 289 289 289 289 289 289 289 289 289 289 290 290 290 290 290 290 290 290 290 290 290 290 290 290 290 290 290 290 290 290 290 289 289 289
307 307 308 308 309 309 309 310 310 310 310 310 310 310 309 309 309 309 309 308 308 308 309 308 308 307 307 307 307 307 306 305 304 303 303 303 304 304 304 303 301 300 299 296 293 292 291 291 290 290 289 289 289 289 289 289 289 289 289 289 289 289 290 290 290 290 290 290 290 290 290 290 290 290 290 290 290 290 290 290 290 289 289 289 289 289
306 306 306 306 306 306 307 307 307 307 308 308 308 308 307 307 307 307 307 307 307 307 307 307 307 307 307 307 306 306 306 305 304 303 302 303 303 304 304 302 301 299 297 294 292 291 291 290 290 289 289 289 289 289 289 289 289 289 289 289 289 289 289 290 290 290 290 290 290 290 290 290 290 290 290 290 290 290 290 290 289 289 289 289 289 289
305 305 305 305 305 305 305 305 305 305 306 306 306 306 306 306 306 305 305 305 305 305 305 305 305 305 305 305 306 305 305 305 304 303 302 302 303 304 303 302 300 298 296 294 292 291 290 290 289 289 289 288 288 288 289 289 289 289 289 289 289 289 289 289 289 289 289 289 289 289 290 290 290 290 290 289 290 289 289 289 289 289 289 289 289 289
304 304 304 304 304 304 304 304 304 304 305 305 305 305 305 305 305 305 304 304 304 304 304 304 304 304 304 304 304 304 304 304 303 303 302 302 302 303 303 301 299 297 295 293 292 291 290 289 289 288 288 288 288 288 289 289 289 289 289 289 289 289 289 289 289 289 289 289 289 289 289 289 289 289 289 289 289 289 289 289 289 289 289 289 289 289
303 303 303 303 304 304 304 304 304 304 304 304 304 304 304 304 304 304 304 304 304 304 304 303 303 304 303 304 304 304 303 303 303 302 301 301 301 301 302 301 299 296 294 292 291 290 289 288 288 288 288 288 288 288 288 289 289 289 289 289 289 289 289 289 289 289 289 289 289 289 289 289 289 289 289 289 289 289 289 289 289 289 289 289 289 289
302 302 303 303 303 303 303 303 303 303 303 303 303 303 303 303 303 304 304 304 304 304 304 303 303 304 304 304 304 304 303 303 302 302 301 300 300 300 300 300 298 295 292 290 290 289 289 288 288 288 288 288 288 288 288 288 289 289 289 289 289 289 289 289 289 289 289 289 289 289 289 289 289 289 289 289 289 289 289 289 289 289 289 289 289 289
302 302 302 302 302 302 302 302 303 303 303 303 303 303 303 303 303 303 303 304 304 304 303 303 304 304 304 304 304 303 303 303 302 301 300 299 298 298 299 298 296 294 291 289 289 288 288 288 287 287 288 288 288 288 288 288 288 289 289 289 289 289 289 289 289 289 289 289 289 289 289 289 289 289 289 289 289 289 289 289 289 289 289 289 289 289
301 301 301 301 301 302 302 302 302 302 302 302 302 302 302 302 302 302 302 302 303 303 303 303 303 304 304 304 303 303 303 303 302 301 299 298 298 297 298 297 294 292 290 289 288 288 288 288 288 288 288 288 288 288 288 288 288 289 289 289 289 289 289 289 289 289 289 289 289 289 289 289 289 289 289 289 289 289 289 289 289 289 289 289 289 289
301 301 301 301 301 301 301 301 301 302 302 302 302 302 302 302 302 301 301 301 302 302 302 302 302 303 303 303 303 303 303 303 302 300 300 298 297 297 297 296 293 290 289 288 288 287 287 288 288 288 288 288 288 288 288 288 288 288 289 289 289 289 289 289 289 289 289 289 289 289 289 289 289 289 289 289 289 289 289 289 289 289 289 289 289 289
301 301 300 300 300 301 301 301 301 301 301 301 302 302 302 302 302 301 301 301 301 301 301 300 301 301 302 302 302 303 303 303 301 300 299 298 297 296 296 294 292 290 289 288 288 288 287 288 288 288 288 288 288 288 288 288 288 288 288 289 289 289 289 289 289 289 289 289 289 289 289 289 289 289 289 289 289 289 289 289 289 289 289 289 289 289
299 300 300 300 300 300 300 300 300 301 301 301 301 302 302 302 302 302 301 301 301 300 300 299 299 299 300 300 300 301 301 301 300 299 298 297 296 296 295 293 291 289 288 288 288 287 287 288 288 288 288 288 288 288 288 288 288 288 288 288 289 289 289 289 289 289 289 289 289 289 289 289 289 289 289 289 289 289 288 288 288 288 288 288 289 288
298 299 299 299 299 300 300 300 300 300 300 300 301 301 301 301 301 301 301 301 300 300 299 298 298 298 298 298 298 298 298 298 298 297 297 296 295 295 294 292 290 289 288 288 287 287 287 288 288 288 288 288 288 288 288 288 288 288 288 288 288 288 289 289 289 289 289 289 289 288 288 288 288 288 288 288 288 288 288 288 288 288 288 288 288 288
298 298 298 299 299 299 299 299 299 299 299 300 300 300 300 300 300 300 300 299 299 299 298 297 297 297 297 296 296 296 296 296 295 295 295 294 294 293 292 291 289 288 288 288 287 287 287 287 288 288 288 288 288 288 288 288 288 288 288 288 288 288 288 289 289 289 288 288 288 288 288 288 288 288 288 288 288 288 288 288 288 288 288 288 288 288
297 297 297 297 297 297 297 298 298 298 298 298 298 298 298 298 298 298 298 298 297 297 297 296 296 296 295 294 293 293 293 293 292 292 292 292 291 291 290 290 289 288 288 287 287 287 287 287 287 288 288 288 288 288 288 288 288 288 288 288 288 288 288 288 288 288 288 288 288 288 288 288 288 288 288 288 288 288 288 288 288 288 288 288 288 288
295 295 295 295 295 294 294 294 295 295 295 294 295 295 295 295 295 295 295 296 296 296 295 295 295 294 293 292 291 290 290 289 289 289 289 289 289 289 288 288 288 287 287 287 287 287 287 287 287 287 287 287 288 288 288 288 288 288 288 288 288 288 288 288 288 288 288 288 288 288 288 288 288 288 288 288 288 288 288 288 288 288 288 287 287 287
293 293 292 292 292 292 292 292 291 291 291 291 291 291 292 293 293 294 294 294 294 294 293 293 292 292 291 290 289 289 288 288 287 287 287 287 287 287 287 287 287 287 287 287 287 287 287 287 287 287 288 288 288 288 288 288 288 288 288 288 288 288 288 288 288 288 288 288 288 288 288 288 288 288 288 288 288 288 288 288 288 287 287 287 287 287
291 291 291 291 291 291 291 291 291 290 290 290 290 290 290 291 292 292 292 292 292 291 291 290 290 290 289 289 289 289 289 289 288 288 287 287 287 287 287 288 288 289 288 288 288 288 288 288 288 288 288 288 288 288 288 288 288 288 288 288 288 288 288 288 288 288 288 288 288 288 288 288 288 288 288 288 288 288 288 287 287 287 287 287 287 286
291 291 291 291 291 291 291 291 291 290 290 290 290 289 290 290 290 291 290 290 290 289 289 288 288 288 288 289 289 289 290 290 290 290 290 289 289 289 289 289 289 289 289 289 289 288 288 288 288 288 288 288 288 288 288 288 288 288 288 288 288 288 288 288 288 288 288 288 288 288 288 288 288 288 288 288 288 287 287 287 287 287 287 287 286 286
292 291 291 291 291 291 290 290 290 290 290 290 290 290 290 290 290 290 290 289 289 289 288 288 288 288 288 288 288 288 289 289 289 289 289 289 289 289 289 289 289 289 288 288 288 288 288 288 288 288 288 288 288 288 288 288 288 288 288 288 288 288 288 288 288 288 288 288 288 288 288 288 287 287 287 287 287 287 287 287 287 287 287 286 286 286
291 291 291 290 290 290 289 289 289 289 289 289 290 290 290 290 290 290 289 289 289 289 289 289 289 289 288 288 288 287 288 288 288 288 288 288 288 288 288 288 288 288 288 288 287 287 287 287 287 287 287 287 287 288 288 288 288 288 288 288 288 288 288 288 288 288 288 288 287 287 287 287 287 287 287 287 287 287 287 287 287 287 286 286 286 286
290 290 290 290 290 289 288 288 288 288 288 288 289 289 289 289 289 289 289 289 289 289 289 289 289 289 289 288 288 288 287 287 287 287 287 287 287 287 287 287 287 287 287 287 287 287 287 287 287 287 287 287 287 288 288 288 288 288 288 288 288 288 288 288 288 288 288 287 287 287 287 287 287 287 287 287 287 287 287 287 287 287 286 286 286 286
289 289 289 289 289 289 288 288 287 287 287 287 288 288 288 288 288 288 289 289 289 289 289 289 289 289 288 288 288 288 288 287 287 287 287 287 287 287 287 287 287 287 287 287 287 287 287 287 287 287 287 287 287 288 288 288 288 288 288 288 288 287 288 288 288 288 288 287 287 287 287 287 287 287 287 287 287 287 287 287 287 286 286 286 286 286
288 288 289 289 289 289 288 288 288 287 287 287 287 287 287 287 287 287 287 287 287 287 287 287 287 287 286 287 287 287 287 287 287 286 286 286 287 287 287 287 287 287 287 287 287 287 287 287 287 287 287 287 287 287 287 287 288 288 288 288 287 287 287 287 287 288 287 287 287 287 287 287 287 287 287 287 287 287 287 287 286 286 286 286 286 286
288 288 288 289 289 289 289 289 288 288 288 288 287 287 287 287 287 286 286 286 286 286 286 286 286 286 286 286 286 286 286 286 286 286 286 286 286 286 287 287 287 287 287 287 287 287 287 287 287 287 287 287 287 287 287 287 287 287 287 287 287 287 287 287 287 287 287 287 287 287 287 287 287 287 287 287 287 287 287 287 286 286 286 286 286 286
288 288 288 288 288 289 289 289 289 289 289 288 288 288 288 288 288 287 287 287 287 287 287 287 287 287 287 287 287 287 287 287 287 287 287 287 286 286 286 287 287 287 287 287 287 287 287 287 287 287 287 287 287 287 287 287 287 287 287 287 287 287 287 287 287 287 287 287 287 287 287 287 287 287 287 287 287 287 287 286 286 286 286 286 286 286
289 289 288 288 288 288 288 288 289 289 289 289 289 289 289 289 289 288 288 288 289 289 289 289 289 289 289 290 290 290 290 290 289 289 288 288 287 287 287 287 286 286 286 287 287 287 287 287 287 287 287 287 287 287 287 287 287 287 287 287 287 287 287 287 287 287 287 287 287 287 287 287 287 287 287 287 287 287 287 286 286 286 286 285 286 286
289 289 289 288 288 288 288 288 288 288 289 289 289 289 289 289 289 289 289 290 290 291 291 291 291 291 291 291 291 291 291 291 291 290 290 289 288 288 287 287 287 287 287 287 287 287 287 287 287 287 287 287 287 287 287 287 287 287 287 287 287 287 287 287 287 287 287 287 287 287 287 287 287 287 287 287 287 287 286 286 286 285 285 285 286 286
289 289 289 289 289 288 288 288 288 288 288 288 288 288 288 288 288 288 289 289 290 291 291 292 292 292 292 292 292 292 291 291 290 290 290 289 288 288 287 287 287 287 287 287 287 287 287 287 287 287 287 287 287 287 287 287 287 287 287 287 287 287 287 287 287 287 287 287 287 287 287 287 287 287 287 287 287 287 286 286 286 285 285 285 286 286
289 289 289 289 289 289 289 288 288 288 288 288 288 288 288 287 287 287 288 288 289 289 290 290 291 291 291 291 291 291 290 290 289 289 289 288 288 288 287 287 287 287 287 287 287 287 287 287 287 288 288 288 287 287 287 287 287 287 287 287 287 287 287 287 287 287 287 287 287 287 287 287 287 287 287 287 287 287 286 286 286 285 285 285 286 286
Wind_Speed
35 35 35 36 37 37 37 37 38 39 41 43 43 42 41 40 39 37 34 27 20 14 12 11 12 13 15 17 19 20 20 20 21 20 20 19 18 18 17 17 17 16 16 15 14 13 12 12 12 12 12 12 12 12 13 13 13 13 12 12 12 11 11 10 10 10 10 10 10 9 9 8 8 7 7 6 6 5 5 5 4 4 4 4 3 3
34 35 36 36 37 37 36 35 34 33 34 35 36 36 36 35 35 33 30 23 16 12 11 11 12 13 16 18 20 21 21 20 20 20 20 20 20 19 19 19 18 17 16 14 13 12 12 11 11 12 12 12 12 12 13 13 13 13 12 12 12 12 11 11 11 10 10 10 10 9 9 9 8 8 7 6 6 6 5 5 5 4 4 4 3 3
33 35 36 36 37 37 36 35 33 32 31 31 32 32 32 32 32 31 29 25 18 13 12 12 13 14 16 19 21 21 21 21 20 20 21 21 21 21 20 19 19 17 16 14 13 12 11 12 12 12 12 12 13 13 13 13 13 13 13 12 12 12 12 11 11 11 10 10 10 10 9 9 8 8 7 7 6 6 6 5 5 5 5 4 4 3
31 34 35 36 37 38 37 36 35 33 32 31 31 31 32 32 32 30 28 25 20 17 15 15 14 15 16 19 21 22 22 22 21 21 21 22 22 22 21 20 18 17 15 14 13 12 12 12 12 12 13 13 13 13 13 13 13 13 13 12 12 12 12 12 11 11 11 10 10 10 9 9 9 8 8 7 7 6 6 6 6 5 5 5 4 4
28 31 33 35 36 37 37 37 37 36 35 34 34 34 34 33 32 30 27 25 22 20 19 18 18 17 18 19 20 22 23 23 22 22 22 23 23 23 22 20 18 17 15 14 13 13 13 13 13 13 13 13 13 13 13 13 13 13 13 13 13 12 12 12 11 11 11 11 10 10 10 9 9 8 8 8 7 7 7 6 6 6 6 5 5 4
24 27 30 32 34 36 36 37 37 38 37 37 37 36 36 35 32 30 28 27 25 24 23 22 21 21 20 21 21 22 23 24 24 24 23 24 24 23 22 20 19 17 16 15 14 14 13 13 13 14 14 14 14 13 13 13 13 13 13 13 13 13 12 12 12 11 11 11 10 10 10 9 9 9 8 8 8 8 7 7 7 6 6 6 5 5
22 24 26 29 32 33 35 35 36 36 36 36 36 35 35 34 32 31 30 29 28 27 26 24 23 23 22 23 23 23 23 24 25 25 25 25 24 23 22 21 19 18 17 16 15 14 14 14 14 14 14 14 14 13 13 13 13 13 13 13 13 13 13 12 12 12 11 11 11 10 10 10 10 9 9 9 8 8 8 8 7 7 7 6 6 6
22 24 25 27 29 31 32 33 34 34 33 33 32 31 31 31 31 31 31 30 29 28 27 25 24 23 23 23 23 23 24 25 25 26 26 26 25 24 23 21 20 18 17 16 16 15 15 15 15 15 15 14 14 13 13 13 13 13 13 13 13 13 13 12 12 12 12 11 11 11 10 10 10 10 10 9 9 9 8 8 8 8 7 7 7 7
23 24 25 26 27 29 31 32 32 32 32 31 30 30 30 30 31 31 31 31 30 29 27 26 24 23 22 23 23 24 24 25 26 27 27 27 26 25 24 22 21 19 18 17 16 16 15 15 15 16 15 15 14 13 13 13 13 13 14 14 14 13 13 13 13 12 12 12 11 11 11 11 10 10 10 10 10 9 9 9 8 8 8 8 8 8
25 26 27 27 28 29 31 32 33 33 32 31 31 30 31 32 32 33 33 33 32 31 29 26 24 23 22 22 23 24 25 25 26 27 27 28 27 26 25 24 22 20 19 18 17 17 16 16 16 16 16 15 14 14 14 14 14 14 14 14 14 14 14 13 13 13 12 12 12 11 11 11 11 11 11 10 10 10 10 9 9 9 9 9 9 8
27 27 28 29 31 31 32 34 34 34 34 33 33 32 32 33 34 35 35 35 35 33 31 27 24 22 22 22 23 24 24 25 26 26 27 28 28 27 26 25 23 21 20 19 18 17 17 17 17 18 17 16 15 14 14 14 14 14 15 15 15 14 14 14 14 13 13 13 12 12 12 12 12 11 11 11 11 11 10 10 10 10 10 10 9 9
28 28 28 29 30 33 34 36 36 37 37 37 36 35 35 35 35 36 37 37 37 35 32 28 25 23 23 23 24 24 23 24 25 26 28 29 29 29 27 26 24 23 21 20 19 18 18 18 19 19 18 16 15 15 15 15 15 15 15 15 15 15 15 15 14 14 14 13 13 13 13 12 12 12 12 12 12 11 11 11 11 11 11 10 10 10
29 29 28 28 29 30 32 34 36 38 38 39 39 38 38 37 37 37 37 38 37 36 33 30 28 27 27 27 27 27 26 26 27 28 31 33 33 31 29 28 26 24 22 21 20 19 19 19 20 19 18 17 16 15 15 16 16 16 16 16 16 15 15 15 15 15 14 14 14 13 13 13 13 13 13 12 12 12 12 12 11 11 11 11 11 11
30 30 29 29 29 29 30 31 33 35 37 38 39 39 38 38 38 38 38 38 38 36 34 33 32 32 32 33 33 32 31 31 31 32 33 35 35 33 30 28 26 25 23 21 20 19 19 20 21 20 18 17 16 16 16 16 16 16 16 16 16 16 16 16 15 15 15 15 14 14 14 13 13 13 13 13 13 13 12 12 12 12 12 12 12 12
32 32 32 31 31 31 30 30 31 32 33 35 36 37 38 39 39 39 39 39 38 37 36 35 35 35 36 36 36 36 35 35 35 36 35 35 35 33 30 27 26 25 23 21 20 20 20 21 21 21 19 17 17 17 17 17 17 17 17 17 17 17 16 16 16 16 15 15 15 14 14 14 14 14 13 13 13 13 13 13 13 13 12 12 12 12
34 34 34 33 33 32 32 31 30 30 30 31 33 35 37 38 39 39 39 38 38 38 37 36 36 36 37 37 38 38 37 37 37 38 36 35 34 32 30 27 25 24 23 22 21 20 21 22 22 21 19 18 17 17 17 17 17 17 17 17 17 17 17 17 16 16 16 15 15 15 14 14 14 14 14 14 14 14 14 13 13 13 13 13 13 13
35 35 35 35 34 33 33 32 31 29 29 29 30 32 33 35 35 36 37 37 37 37 37 36 36 36 37 36 37 37 37 37 38 38 36 34 33 31 29 27 25 24 23 22 21 22 22 23 22 21 20 19 18 18 18 18 18 18 18 18 18 18 17 17 17 16 16 16 16 15 15 15 15 15 15 14 14 14 14 14 14 14 14 13 13 13
35 35 35 35 34 34 33 32 31 30 29 29 29 29 29 30 31 33 34 34 35 34 34 35 35 36 37 37 36 35 35 35 36 36 35 33 32 30 29 27 25 24 23 23 22 23 23 24 23 22 20 19 19 19 19 19 19 19 19 19 18 18 18 18 17 17 17 16 16 16 15 15 15 15 15 15 15 15 15 15 14 14 14 14 14 13
35 35 35 34 34 34 33 33 32 31 30 29 28 28 28 28 29 30 31 32 31 31 31 32 32 33 34 35 34 33 32 33 34 34 34 33 31 30 28 27 25 24 24 23 23 24 24 24 23 22 21 20 20 20 20 19 19 19 19 19 19 19 18 18 17 17 17 17 16 16 16 16 16 16 16 16 16 15 15 15 15 15 15 14 14 14
35 35 35 35 34 34 34 34 33 32 30 29 28 28 27 28 28 29 30 29 29 28 28 29 29 29 29 30 31 31 31 32 33 33 33 32 31 30 29 27 26 25 24 24 24 25 25 25 24 22 22 21 21 20 20 20 20 20 20 19 19 19 19 18 18 18 17 17 17 16 16 16 16 16 16 16 16 16 16 16 15 15 15 15 14 14
32 33 34 34 34 34 34 33 32 31 30 29 29 28 28 27 27 27 28 27 27 26 26 26 27 26 26 28 29 29 30 31 33 33 33 32 31 30 29 27 26 25 25 25 25 26 26 25 24 23 22 22 21 21 21 20 20 20 20 20 20 19 19 18 18 18 18 17 17 17 17 17 17 17 17 17 17 16 16 16 16 16 15 15 15 14
28 29 30 31 31 32 32 31 30 29 29 29 29 28 28 27 26 26 25 24 24 23 23 23 24 24 24 26 27 27 27 30 32 32 32 32 31 30 29 28 27 26 25 25 26 26 26 25 24 23 23 22 22 21 21 21 21 20 20 20 20 19 19 19 18 18 18 18 17 17 17 17 17 17 17 17 17 17 17 17 16 16 16 16 15 15
28 27 26 27 27 27 26 26 26 27 27 27 27 26 25 24 24 23 22 22 21 22 22 22 23 23 24 25 25 25 26 28 29 30 30 32 31 30 28 28 27 26 26 26 26 27 26 25 24 23 23 22 22 22 21 21 21 21 21 20 20 20 19 19 18 18 18 18 18 18 18 18 18 18 18 17 17 17 17 17 17 17 16 16 16 15
29 28 27 26 25 23 22 22 22 23 23 23 23 22 22 22 22 22 21 21 21 22 23 23 24 25 25 25 26 26 26 26 27 28 29 30 30 29 28 28 28 27 26 26 26 27 26 25 24 23 23 23 22 22 22 21 21 21 21 21 20 20 19 19 19 18 18 18 18 18 18 18 18 18 18 18 18 18 18 17 17 17 17 16 16 15
28 28 27 26 25 22 21 20 20 20 20 20 20 20 20 21 21 22 22 22 23 24 24 25 27 27 27 27 27 27 27 26 26 27 28 28 28 28 28 28 28 28 26 26 26 27 26 25 24 24 23 23 22 22 22 22 22 21 21 21 20 20 20 19 19 18 18 18 18 18 18 18 18 18 18 18 18 18 18 18 17 17 17 17 16 16
27 27 26 25 24 22 21 20 19 19 18 18 19 19 20 21 22 24 25 25 26 25 26 26 27 28 27 27 28 29 28 26 26 27 27 27 27 27 28 28 28 28 26 26 27 27 26 25 25 24 24 23 23 22 22 22 22 21 21 21 20 20 20 19 19 19 18 18 18 19 19 19 19 19 18 18 18 18 18 18 18 17 17 17 17 16
25 24 24 23 22 21 21 20 19 19 19 19 19 20 21 22 24 25 27 27 26 26 26 27 27 27 27 28 29 29 28 27 27 27 26 26 27 27 27 27 27 27 27 27 27 27 26 25 25 24 24 23 23 22 22 22 22 22 21 21 21 20 20 20 19 19 19 19 19 19 19 19 19 19 19 18 18 18 18 18 18 18 17 17 17 16
24 23 22 22 21 21 21 21 20 20 20 20 20 21 21 22 24 26 27 26 25 25 27 27 27 27 27 28 28 28 27 27 27 26 25 25 27 28 27 26 27 28 27 27 27 27 26 25 25 24 24 24 23 23 23 22 22 22 21 21 21 20 20 20 19 19 19 19 19 19 19 19 19 19 19 18 18 18 18 18 18 18 18 17 17 16
24 24 23 23 22 22 22 22 22 22 22 22 22 22 22 23 24 24 24 24 24 25 27 27 26 26 26 26 27 26 27 27 26 25 25 26 28 28 26 26 27 28 27 27 27 27 27 26 25 24 25 25 24 24 23 23 23 22 22 21 21 21 20 20 19 19 19 19 19 19 19 19 19 19 19 18 18 18 18 18 18 18 18 17 17 17
25 25 24 24 24 23 23 23 23 23 23 23 23 23 23 23 23 23 22 22 23 25 26 26 25 25 26 26 26 27 28 27 26 25 25 27 28 27 25 26 27 28 28 27 27 28 27 26 25 25 25 25 24 24 24 23 23 22 22 21 21 21 20 20 19 19 19 19 19 19 19 19 19 19 19 18 18 18 18 18 18 18 18 17 17 17
26 25 25 25 25 24 24 24 24 24 24 24 24 24 24 23 23 23 22 22 23 24 24 24 25 25 25 25 26 27 27 26 24 24 26 27 27 26 25 26 27 28 28 27 28 28 27 26 25 25 25 25 24 24 24 23 23 22 22 21 21 20 20 20 19 19 19 19 19 19 19 19 19 19 19 18 18 18 18 18 18 18 18 17 17 17
25 25 25 25 25 25 25 24 24 24 24 24 25 25 25 24 24 24 23 23 23 23 22 22 23 23 24 24 25 25 24 22 22 23 25 26 26 25 24 26 27 27 27 27 27 26 24 25 25 24 24 24 24 24 23 23 22 22 21 21 20 20 20 19 19 19 19 19 19 19 19 19 19 19 19 18 18 18 18 18 18 18 18 17 17 17
23 24 24 24 24 24 24 24 24 24 25 25 25 25 25 25 25 25 24 24 23 22 21 21 21 21 21 21 21 20 19 18 18 21 23 24 24 24 24 25 26 26 26 26 26 26 24 24 24 24 23 23 23 23 23 22 22 21 20 20 20 19 19 19 19 19 19 19 19 19 19 19 19 18 19 19 18 18 18 18 18 18 18 18 18 18
21 22 22 23 23 23 24 24 24 24 24 25 25 25 25 24 25 24 24 23 23 22 21 20 19 18 16 16 15 14 14 14 16 18 21 22 22 22 23 24 25 25 25 25 25 25 25 24 23 22 22 22 22 22 22 21 21 20 20 19 19 19 19 19 19 19 18 18 18 18 18 19 19 19 19 19 18 18 18 18 18 18 18 18 18 18
19 19 20 20 20 21 21 22 22 23 23 23 23 23 23 23 23 23 22 22 22 21 21 20 18 16 14 12 10 10 9 10 13 16 18 19 20 20 21 22 23 23 24 24 24 24 24 23 23 22 20 20 20 20 20 20 20 19 19 18 18 18 18 18 18 18 18 18 18 18 18 19 19 19 19 19 19 18 18 18 18 18 18 18 18 18
16 16 17 17 17 17 18 19 19 19 20 20 20 20 20 20 20 20 19 19 20 20 20 19 18 16 14 11 9 8 7 8 10 13 15 16 17 18 20 20 20 21 21 22 22 22 22 22 21 21 20 19 18 18 18 18 18 18 18 17 17 17 18 18 17 17 17 17 18 18 18 19 19 19 19 19 19 18 18 18 18 18 18 18 18 18
13 13 13 14 14 14 14 15 15 15 15 16 16 16 16 16 17 17 17 17 18 18 18 17 16 15 14 13 11 9 8 9 10 11 12 13 14 16 17 17 17 17 18 18 19 19 19 19 19 19 19 18 18 18 17 17 17 17 17 17 17 17 17 17 17 17 17 17 18 18 19 19 19 19 19 19 19 18 18 18 18 18 18 18 19 19
12 12 12 12 12 12 12 12 12 11 11 12 12 13 13 13 14 14 15 15 16 16 16 16 15 14 14 13 12 12 11 12 12 12 12 12 12 13 14 14 14 15 15 15 15 15 16 16 17 17 18 18 19 18 18 17 17 17 17 16 17 17 17 17 17 17 17 18 18 18 19 19 19 19 19 19 19 18 18 18 18 18 18 19 19 19
12 12 12 12 12 11 11 10 10 9 10 10 10 10 11 11 11 12 13 14 14 15 15 14 14 13 13 13 13 13 13 14 14 14 13 13 13 13 13 13 13 13 14 15 15 15 16 16 17 17 18 18 19 19 19 18 18 17 17 17 17 17 17 17 17 17 18 18 18 18 19 19 19 19 19 19 19 18 18 18 18 18 19 19 19 20
13 13 13 13 12 12 11 10 10 10 10 10 10 10 10 10 10 11 12 12 13 13 13 13 13 13 13 13 13 13 13 14 14 14 14 14 14 14 14 14 14 14 15 16 17 17 18 18 18 18 19 19 20 20 19 19 18 18 17 17 17 18 18 17 17 18 18 18 18 18 19 19 19 19 19 19 19 19 18 18 19 19 19 19 20 20
13 14 13 13 13 13 12 11 11 11 11 10 10 10 10 11 11 11 12 12 12 13 13 13 13 13 14 14 14 14 14 13 13 13 13 13 13 14 14 14 15 15 16 17 18 19 19 19 19 19 19 20 20 20 19 18 18 17 17 17 18 18 17 18 18 18 18 18 18 18 19 19 19 19 19 19 19 19 19 19 19 19 19 20 20 20
12 13 13 13 13 13 12 12 12 12 11 11 11 11 11 12 12 12 12 12 13 13 13 13 13 14 14 14 14 14 14 14 14 14 14 14 14 15 15 15 16 16 17 18 19 19 19 18 18 18 19 19 19 19 19 18 18 17 18 18 18 18 18 18 18 18 18 18 18 19 19 19 20 20 20 20 20 19 19 19 19 19 19 20 20 20
10 11 12 13 13 12 12 12 12 12 12 12 12 12 12 12 12 13 13 13 13 13 13 13 13 13 13 13 13 14 14 14 15 15 15 15 16 16 16 17 17 17 18 18 18 18 18 18 18 18 18 18 18 18 18 18 17 18 18 18 18 18 18 19 19 18 18 18 18 19 19 20 20 20 20 20 20 20 19 19 19 19 19 20 20 20
9 10 11 12 12 12 12 12 12 12 12 12 12 12 12 13 13 13 13 13 13 13 12 12 12 13 13 13 13 13 14 14 15 15 16 16 16 16 17 17 17 17 18 18 18 18 18 18 18 18 18 18 18 18 18 18 18 18 19 19 19 19 19 19 18 18 18 19 19 19 19 20 20 20 20 20 20 20 20 19 19 19 19 20 20 20
10 10 10 11 11 11 11 11 11 11 11 12 12 12 12 12 12 12 12 12 12 12 12 12 12 13 13 13 13 13 14 14 15 15 15 15 16 16 16 17 17 18 18 19 19 18 18 18 18 18 18 18 19 19 18 18 18 19 20 19 19 19 19 19 18 18 19 19 19 19 20 20 21 20 20 19 19 19 19 19 19 19 19 20 20 20
11 11 11 10 10 11 11 11 10 11 11 11 11 11 12 12 12 11 11 11 11 12 12 12 12 12 12 12 12 12 13 13 13 13 13 14 14 15 16 16 17 18 18 18 18 18 18 18 18 18 18 19 19 19 19 18 19 19 20 19 19 19 19 19 19 19 19 19 19 20 20 21 21 20 20 19 19 19 19 19 19 19 19 19 20 20
12 12 11 11 11 11 11 11 11 11 11 11 11 11 11 12 11 11 10 11 11 11 11 11 11 11 11 11 11 11 11 11 11 12 12 13 13 14 15 16 16 17 18 18 18 18 18 18 18 18 19 19 19 19 18 18 19 19 19 19 19 19 19 19 19 19 19 20 20 20 21 21 21 20 19 19 19 19 19 18 18 19 19 19 20 20
13 13 12 12 12 12 12 12 12 12 12 12 12 12 12 12 12 11 11 11 11 11 12 11 11 11 11 11 11 11 11 10 11 11 12 13 14 14 15 16 16 17 17 17 17 17 18 18 18 19 19 19 19 19 19 19 19 19 19 19 19 19 19 19 19 19 20 20 20 20 21 21 20 20 19 19 19 19 18 18 18 18 19 19 19 19
14 14 14 14 14 14 14 14 14 14 14 14 14 14 13 13 13 13 13 13 12 13 13 12 12 12 12 12 12 12 12 11 11 12 13 14 15 15 16 17 17 17 17 17 17 18 18 19 19 19 19 19 20 19 19 19 19 19 19 19 19 20 20 19 19 19 20 20 20 21 21 21 20 20 19 19 19 19 18 18 18 18 18 19 19 19
15 15 15 15 15 15 15 15 15 15 15 15 15 16 16 16 16 16 16 15 15 14 14 14 13 13 13 13 13 13 13 12 12 13 14 15 16 17 18 18 18 18 18 18 19 19 19 20 20 20 20 20 20 20 20 20 20 20 20 20 20 20 20 19 19 20 20 20 21 21 21 20 20 20 19 19 19 19 19 18 18 18 18 18 18 18
16 17 17 17 17 17 16 16 16 16 16 16 17 17 18 18 19 18 18 18 18 17 17 16 15 15 15 14 14 14 14 14 14 15 16 17 18 19 19 19 20 20 20 20 20 21 21 22 22 22 22 22 22 22 22 21 21 21 21 20 20 20 20 19 19 20 20 20 21 21 20 20 20 19 19 19 19 19 19 18 18 17 17 17 18 18
Wind_Direction
216 215 212 208 204 199 194 191 189 187 186 185 185 184 183 183 183 183 184 186 191 201 209 213 217 222 226 229 231 234 238 242 244 243 238 232 228 227 227 228 230 232 233 235 237 240 243 246 250 251 252 252 252 251 251 251 252 254 257 260 263 265 267 267 267 266 265 263 261 259 257 255 253 250 248 246 245 246 246 246 249 254 260 262 259 252
213 212 210 207 204 201 197 194 191 189 187 186 184 184 183 183 184 185 187 191 199 211 218 221 225 230 232 231 231 231 232 236 239 240 238 234 231 229 229 229 230 231 231 233 236 240 244 248 251 252 252 252 251 250 250 251 252 254 257 260 263 264 264 264 263 262 261 259 257 255 253 251 249 247 245 243 243 243 243 245 246 250 257 259 258 252
211 210 208 206 204 202 200 198 196 194 193 191 190 188 188 190 192 194 195 196 202 214 221 224 230 236 239 238 236 234 233 233 235 237 239 237 234 232 231 230 230 230 230 232 236 241 245 249 251 252 251 250 249 249 249 250 252 254 257 260 262 262 262 261 260 258 256 254 253 251 250 248 246 244 242 240 240 240 242 242 244 247 252 256 256 250
211 209 208 206 204 202 201 201 200 199 199 199 198 198 199 201 203 204 205 204 208 215 221 224 229 236 241 243 243 241 238 235 235 236 238 239 239 237 235 232 230 230 230 233 237 241 244 247 249 249 248 247 247 247 247 249 251 253 256 258 260 261 260 259 257 255 253 251 249 247 246 245 245 243 241 240 239 238 239 240 241 244 248 253 255 252
211 211 210 208 205 203 203 203 202 202 203 204 205 208 210 212 213 215 216 217 217 219 221 222 224 230 237 243 245 246 245 242 239 238 238 240 241 241 239 235 232 231 232 234 236 239 242 244 246 246 245 245 245 245 246 248 250 252 255 256 258 258 257 256 254 251 249 247 246 245 244 243 243 243 242 240 240 239 239 240 241 243 246 250 254 256
210 211 212 211 209 207 206 205 205 205 206 207 209 213 216 219 221 223 224 224 223 222 221 220 222 225 230 237 242 245 247 247 245 242 241 241 242 242 241 238 235 233 234 235 236 238 239 241 243 243 243 243 243 244 245 247 249 251 253 254 255 255 254 253 250 248 246 244 243 242 242 242 242 241 242 242 241 241 241 241 242 245 247 250 253 257
209 211 213 214 213 212 211 210 210 211 211 212 214 217 220 224 226 228 229 229 227 225 223 222 223 224 227 231 236 241 244 247 248 247 245 244 244 243 242 240 237 235 235 235 236 237 238 239 241 242 242 242 242 243 244 246 248 250 251 252 252 252 250 249 247 245 244 243 242 241 241 241 241 242 242 242 242 242 243 244 245 246 249 252 254 257
209 211 214 216 217 217 216 216 216 217 219 220 222 225 228 231 233 234 234 233 231 229 228 227 228 229 230 231 234 238 241 244 247 248 249 248 247 246 244 242 239 237 236 235 235 236 237 239 241 242 242 241 241 242 243 245 247 249 250 250 250 249 248 246 245 243 242 241 241 241 241 241 242 242 243 244 244 244 245 246 247 249 251 254 256 258
212 212 214 217 219 220 220 220 221 222 224 227 230 233 236 238 239 240 239 238 236 234 232 233 235 237 238 238 239 240 242 245 247 249 251 251 250 249 247 244 241 239 236 235 235 235 237 239 241 242 241 241 241 241 243 244 246 247 248 248 248 247 246 244 242 241 240 239 240 240 240 241 242 243 244 245 246 247 248 248 250 251 253 255 258 260
219 218 217 218 220 222 224 223 224 225 227 229 232 236 239 240 242 242 241 240 239 238 236 236 239 244 248 249 249 249 249 250 250 251 252 252 251 250 248 245 242 239 237 235 235 236 237 239 240 241 240 239 239 240 242 243 245 246 247 247 246 245 243 242 240 239 238 238 237 238 238 240 241 242 244 245 247 248 249 250 252 253 254 256 259 261
225 225 224 221 219 220 223 224 226 227 227 228 231 234 238 240 242 243 242 241 240 239 237 237 241 248 253 256 257 257 256 256 255 255 254 254 253 251 249 246 242 239 236 235 235 236 237 239 239 239 238 237 238 239 241 242 244 244 245 245 244 242 241 240 239 238 237 236 236 236 236 237 239 240 241 243 245 247 248 250 252 254 255 257 259 261
228 228 228 227 224 222 221 223 225 226 227 227 228 229 233 237 241 243 243 242 241 239 237 237 240 245 250 252 254 255 256 256 255 256 257 256 255 253 250 247 243 240 237 236 235 236 237 239 239 238 237 236 237 238 240 241 242 242 242 242 241 240 239 238 238 237 236 236 235 235 236 237 238 239 240 241 243 245 247 249 251 254 256 258 259 261
230 230 230 230 229 228 226 225 224 224 225 226 227 228 230 234 238 241 242 241 241 240 238 237 238 240 242 243 244 245 247 248 250 252 254 255 255 253 251 248 245 242 239 237 236 236 237 238 238 237 235 235 236 237 238 239 240 240 240 240 239 238 237 237 236 236 236 236 236 236 237 237 238 240 241 242 244 245 246 248 250 252 255 257 259 261
230 230 230 230 230 230 231 229 228 227 227 228 229 230 231 233 235 237 237 238 238 239 238 238 238 239 239 239 238 238 239 241 243 246 248 250 250 250 249 247 245 242 239 237 236 236 236 237 237 235 234 234 235 236 237 237 238 238 238 237 237 236 236 236 236 236 236 236 236 237 238 239 240 242 243 244 245 246 248 249 250 252 254 256 258 260
230 230 230 230 231 231 231 231 232 232 233 233 232 231 231 232 233 234 234 234 235 236 237 238 239 240 241 241 240 240 239 239 240 242 243 244 245 245 244 243 241 240 238 236 235 235 236 236 236 235 234 233 234 235 236 236 236 236 236 236 235 235 235 235 235 236 236 236 237 238 239 240 242 243 245 246 247 248 249 250 251 253 254 255 257 259
231 231 232 232 233 233 233 233 233 234 235 235 234 232 231 231 232 233 234 235 236 237 237 237 238 240 242 244 244 243 242 241 241 241 241 241 242 242 241 239 237 236 236 234 233 233 234 235 235 234 233 233 233 234 234 234 235 235 234 234 234 234 233 234 235 235 236 237 238 239 240 242 243 245 246 248 249 250 251 252 253 254 255 256 258 259
233 233 233 234 235 235 235 236 235 235 235 234 234 234 235 235 235 236 236 237 238 239 239 239 239 239 241 242 243 243 242 241 241 241 240 240 241 241 240 237 235 235 235 234 232 231 232 233 233 232 232 231 232 232 233 233 233 233 233 233 233 232 233 233 234 235 237 238 239 240 241 243 244 246 248 249 251 252 253 254 254 255 256 257 258 260
236 235 235 235 235 236 237 237 236 236 235 235 235 235 236 236 237 237 238 240 240 241 241 242 242 242 243 242 241 242 242 240 239 240 239 239 239 240 239 237 235 234 234 233 232 231 232 232 232 231 230 230 231 231 231 232 231 232 232 232 232 232 232 233 234 235 237 239 240 242 243 244 246 248 249 251 252 253 254 255 256 257 257 258 259 260
238 239 238 238 238 238 239 239 238 238 237 237 236 236 235 235 235 236 238 240 241 243 243 244 245 247 248 247 245 244 243 240 239 238 238 238 238 239 238 235 233 232 233 233 232 231 231 231 231 230 230 229 230 230 230 230 231 231 231 231 231 232 232 233 234 236 238 240 242 243 245 246 248 249 251 252 253 255 255 256 257 257 258 259 260 260
240 240 241 241 241 241 241 241 241 241 242 242 241 240 238 236 236 236 237 238 240 242 244 245 247 248 250 252 250 247 244 242 239 238 238 238 237 237 236 234 232 231 232 232 231 230 230 229 229 229 229 229 229 229 230 230 230 230 230 231 231 232 232 233 234 236 238 241 243 245 246 248 249 251 252 253 254 255 256 257 257 258 258 259 260 260
244 244 243 243 243 243 243 244 245 245 246 245 244 243 241 240 239 238 239 239 240 241 242 244 246 248 250 252 251 248 245 242 240 238 239 239 237 236 235 233 232 232 232 231 230 229 229 228 228 228 229 229 229 229 229 230 230 230 230 231 231 232 233 234 235 237 239 242 244 246 248 249 250 252 253 254 255 256 256 257 258 258 258 259 260 260
248 249 248 248 248 247 248 248 249 249 248 247 245 244 244 244 244 243 243 243 243 243 243 244 245 246 248 251 251 249 246 244 242 241 240 239 238 236 235 234 233 232 231 229 228 228 228 228 228 228 229 229 229 229 229 229 229 230 230 231 231 232 233 234 236 237 240 242 245 247 249 250 252 253 254 255 255 256 257 257 257 258 259 259 259 260
243 246 249 251 252 253 254 254 253 252 251 250 250 250 250 251 251 250 250 250 249 248 247 247 247 246 246 247 248 247 246 244 243 242 240 240 239 237 235 234 233 232 230 227 227 228 229 228 228 228 229 229 228 228 228 229 229 229 230 231 232 233 234 235 236 238 240 243 245 248 250 251 252 253 254 255 256 256 257 257 257 258 258 259 259 260
240 242 245 247 249 252 253 254 254 253 253 252 252 252 253 252 252 252 253 251 250 249 248 247 245 243 242 243 244 243 242 241 241 239 237 238 238 237 234 234 233 231 229 226 226 228 229 228 228 229 229 229 228 228 228 228 229 229 230 231 232 233 234 236 237 239 241 244 246 248 250 252 253 254 255 255 256 256 257 257 257 257 258 259 259 260
240 241 242 243 244 245 247 248 249 250 251 251 251 249 247 245 244 243 242 242 242 242 242 240 239 239 239 239 240 240 238 238 237 236 234 234 235 235 232 231 232 231 228 226 226 228 228 228 228 228 229 229 228 228 228 229 229 229 230 231 232 234 235 237 238 240 243 245 247 249 251 252 253 254 254 255 255 256 256 257 257 257 258 259 259 260
239 239 240 240 240 240 240 241 242 243 245 246 247 246 243 241 239 237 235 234 234 235 236 236 237 238 238 239 239 238 236 235 235 234 233 232 233 232 229 228 229 229 227 225 225 227 228 227 227 228 229 229 229 228 228 229 229 230 230 231 233 235 236 238 240 242 244 246 248 250 251 252 253 254 254 255 255 255 256 256 257 257 258 259 260 260
236 236 236 236 236 236 235 235 235 236 237 240 242 243 242 241 239 237 235 233 232 232 233 235 236 236 236 237 238 237 236 234 234 233 232 231 231 231 229 227 226 226 224 223 224 226 226 226 226 227 228 229 229 228 229 229 230 230 231 232 234 235 237 240 241 244 245 247 249 251 252 253 253 254 254 254 254 255 255 256 256 257 258 259 260 261
232 232 232 232 232 232 232 231 231 231 232 234 236 238 240 240 240 240 238 236 234 234 235 235 235 236 236 237 238 237 236 235 234 232 230 229 230 230 229 225 223 223 220 220 222 224 225 225 225 225 226 227 227 227 228 229 229 230 231 232 234 236 238 241 243 245 247 249 250 251 252 253 253 253 254 254 254 254 255 256 256 257 258 259 260 261
230 230 230 230 230 230 230 230 230 230 230 231 232 234 236 237 240 241 242 240 238 238 237 237 237 237 238 239 239 238 237 235 233 230 228 228 229 228 226 223 221 220 217 216 219 222 223 223 223 223 224 225 225 226 227 228 229 230 231 233 234 237 239 242 245 247 249 250 251 252 252 253 253 253 253 253 254 254 255 256 256 257 258 259 261 262
230 229 229 229 229 229 229 229 229 229 230 230 231 232 233 234 237 239 241 241 240 241 240 240 239 239 239 240 240 239 237 235 231 228 227 228 228 226 223 220 219 217 214 214 216 220 222 222 222 222 223 224 224 225 226 227 229 230 231 233 235 238 241 243 246 248 249 251 251 252 252 252 252 252 253 253 253 254 255 256 257 258 259 260 261 262
231 230 230 230 230 229 229 230 230 230 230 230 231 231 232 232 233 235 237 237 238 240 242 243 242 241 240 240 239 239 239 235 231 228 227 227 226 224 221 219 218 215 213 213 216 219 222 223 223 223 223 224 224 225 226 227 228 230 231 233 236 239 242 245 247 249 250 251 251 252 252 252 252 252 252 253 254 254 255 256 258 259 260 261 262 263
231 230 230 230 230 230 230 230 230 231 231 231 231 232 232 232 232 233 233 233 234 236 240 242 243 243 242 242 243 244 244 239 233 229 228 226 225 222 219 219 217 214 213 214 216 219 222 225 225 225 225 224 225 225 226 228 229 230 232 234 237 240 243 246 248 249 250 251 251 251 251 251 251 252 252 253 254 255 256 257 258 259 260 261 262 263
229 229 229 229 230 230 230 231 231 231 231 232 232 233 233 233 233 233 233 232 231 231 233 237 240 241 241 242 244 246 247 241 233 228 227 225 223 219 217 217 216 215 213 215 217 220 222 226 227 228 227 227 226 226 227 229 230 231 233 236 238 242 244 247 248 250 250 250 250 250 251 251 251 252 253 253 254 255 256 258 259 260 261 262 263 264
225 226 226 227 228 229 229 230 230 230 230 231 232 232 232 232 232 232 232 231 229 228 227 229 232 234 235 237 239 240 238 232 224 221 223 223 221 217 215 216 216 215 214 216 218 221 224 227 229 230 230 229 228 228 228 229 231 233 235 237 239 242 245 247 248 249 250 250 250 250 251 251 252 252 253 254 255 256 257 258 259 261 262 264 265 266
221 222 223 224 224 226 226 226 227 227 227 228 229 230 230 230 230 230 229 227 225 223 222 222 222 223 224 226 230 231 226 219 213 213 217 219 218 216 215 216 216 215 216 218 220 223 225 228 230 232 232 231 230 229 228 229 231 233 236 238 240 242 244 246 247 248 249 249 249 250 251 251 252 253 254 255 256 256 258 259 260 262 264 266 268 270
215 216 216 217 217 219 220 220 221 222 223 224 225 225 225 225 225 224 223 221 218 216 214 212 211 210 208 210 214 219 219 212 209 212 215 217 216 216 217 217 217 217 218 221 223 225 227 229 231 232 233 232 231 230 230 231 232 234 236 238 240 242 244 245 246 247 248 248 249 250 251 252 253 254 255 256 256 257 258 260 261 263 266 268 271 273
204 204 204 204 206 208 210 211 213 216 218 219 220 219 218 218 217 215 214 211 209 206 204 202 199 197 195 193 195 199 202 204 207 211 213 214 214 217 220 221 221 222 225 226 228 229 231 232 233 233 235 236 236 236 236 237 237 238 238 239 240 242 243 244 244 245 246 247 249 250 252 253 254 255 256 256 257 258 259 261 263 265 268 270 273 275
190 191 192 194 196 198 200 202 203 205 208 210 211 210 209 208 207 205 203 201 199 197 195 192 189 187 186 185 186 187 188 193 200 204 205 205 208 213 220 223 225 227 231 233 233 233 234 234 235 236 238 240 242 243 243 243 242 242 242 241 241 242 242 243 244 244 246 247 248 250 252 254 255 256 257 258 259 260 261 263 265 266 269 271 274 276
189 189 189 191 192 193 193 194 194 195 197 200 201 201 200 199 198 196 195 193 192 190 189 187 185 183 182 182 184 185 187 190 194 197 198 198 201 207 212 217 221 224 229 232 233 233 233 234 234 235 237 241 243 244 244 244 243 242 242 242 242 242 242 243 244 245 245 247 249 251 252 254 256 257 258 259 260 262 263 265 267 268 270 272 273 275
196 194 193 193 192 190 189 188 189 190 193 196 195 194 193 193 193 193 192 191 190 189 187 186 185 184 184 185 186 188 191 194 197 199 200 202 204 207 212 216 218 221 225 228 230 231 231 232 232 233 235 236 239 241 241 241 241 241 241 241 241 242 243 244 244 245 246 248 249 251 253 255 256 258 259 261 262 263 264 266 267 269 270 271 272 274
202 199 198 196 193 190 190 190 190 192 194 196 195 193 192 192 193 193 194 193 192 191 189 188 187 187 188 188 189 192 195 199 202 205 207 209 211 214 217 219 219 220 222 225 227 229 229 230 230 231 232 234 237 239 240 240 240 241 241 241 242 243 244 245 245 246 247 248 250 251 253 255 256 258 259 261 263 264 265 266 267 269 270 271 272 273
205 202 200 196 192 189 189 188 189 192 196 198 198 197 195 193 194 194 194 194 194 192 191 191 191 190 190 191 193 194 198 202 205 209 211 213 215 217 218 218 218 218 220 223 226 227 228 229 230 231 233 236 238 240 241 242 242 242 243 243 243 244 245 245 246 247 248 249 250 252 253 254 256 257 259 260 262 263 265 266 267 268 269 270 272 273
202 201 199 195 192 189 187 187 190 194 198 200 202 201 198 197 197 198 198 198 197 196 195 195 194 194 195 196 197 199 203 206 208 211 213 214 215 216 217 217 217 218 221 224 226 229 231 232 233 234 236 239 241 242 243 243 244 245 246 245 244 244 245 246 247 248 248 249 250 252 253 254 255 256 258 259 261 262 263 265 266 267 268 270 271 273
199 198 197 194 193 191 189 191 193 197 199 202 204 203 201 200 201 202 203 204 204 204 205 205 206 207 207 207 208 210 212 214 215 215 216 216 217 217 218 219 220 223 226 227 229 230 233 235 237 238 239 240 242 243 244 244 244 245 246 246 245 245 245 247 248 249 249 250 250 251 252 253 254 255 256 257 259 260 261 263 265 266 268 269 271 272
199 197 195 193 192 192 192 194 196 198 200 203 204 204 202 202 202 204 207 208 209 211 213 215 217 219 220 219 219 220 221 222 222 221 221 220 220 220 222 223 226 229 231 232 233 233 235 237 238 240 241 241 242 241 241 241 242 243 244 244 244 245 245 247 248 249 249 250 250 250 251 252 253 253 254 255 257 259 260 262 264 265 267 269 270 271
201 199 197 195 195 195 196 196 197 198 200 202 203 203 203 202 203 204 206 209 211 213 215 217 220 222 223 223 224 225 228 228 228 227 227 227 226 226 227 228 230 232 234 236 237 238 238 239 240 241 242 242 242 242 241 241 241 242 243 243 243 244 244 245 245 246 247 248 249 249 250 251 252 252 253 254 256 258 260 262 263 264 266 268 269 271
204 203 201 200 200 200 200 199 199 199 200 199 200 201 201 201 201 202 204 206 209 211 213 215 217 219 218 218 220 224 229 232 234 235 236 236 236 236 235 235 235 236 237 239 241 242 243 244 244 244 244 244 245 244 244 243 243 243 243 243 243 243 243 243 244 244 245 246 246 248 249 250 252 253 253 254 256 258 259 261 262 263 264 266 268 270
208 207 206 206 207 208 207 206 205 204 202 201 200 201 201 201 201 201 203 205 207 209 210 212 213 214 213 212 215 218 222 227 231 235 239 241 242 242 243 242 242 242 242 243 244 246 248 248 248 248 247 247 247 247 246 245 245 244 243 242 242 243 242 243 243 243 244 244 245 246 248 249 251 252 254 255 256 257 258 259 261 262 263 265 267 269
215 213 211 211 212 213 214 213 212 211 209 207 206 205 205 205 205 204 205 206 208 209 210 211 211 212 212 213 215 219 222 225 227 231 235 239 241 243 244 244 245 245 245 245 246 248 249 250 250 250 250 249 249 249 247 246 245 244 243 242 241 241 241 241 242 242 243 244 244 245 246 248 250 252 253 254 255 255 256 257 258 260 262 264 265 267
223 220 217 216 216 216 217 217 217 217 216 215 214 213 213 212 212 211 210 211 211 212 213 214 215 216 217 219 222 226 230 233 234 235 236 237 239 241 242 243 244 245 246 246 247 248 248 249 250 250 249 249 249 249 248 247 245 244 243 242 241 241 241 241 240 241 242 244 244 245 246 247 249 250 252 253 254 254 254 254 255 257 260 262 264 265
231 228 224 222 221 220 219 219 220 221 221 221 220 220 220 220 219 218 217 217 217 217 218 219 220 222 224 227 231 235 238 240 241 241 240 240 240 240 241 242 243 244 244 245 246 246 247 248 249 250 250 249 249 248 247 246 246 245 243 242 241 240 240 240 240 240 241 243 245 246 247 248 249 250 251 252 253 254 253 252 252 253 256 259 261 263